Showing default

COSMOS 2285, 23189

Orbit data source: Space-Track

COSMOS 2285, 23189 is a payload satellite owned by TsSKB (CIS) in LEO that was launched on Tue, 02 Aug 1994 UTC via a KOSMOS 11K65M launch vehicle from the Plesetsk Missile And Space Complex (PKMTR). Payloads include a variety of satellites, spacecraft, and rockets equipped with specific instruments for various scientific and technological missions. These include communications satellites like Starlink; space stations such as the ISS; scientific satellites like the Hubble; Earth observation satellites from companies like Planet Labs, Umbra, and HawkEye 360; GPS; miniature CubeSats for education and research; and military/defense satellites.

Loading next visibility...
COSMOS 2285 details
Identifier
23189, 1994-045A
Orbit
LEO
Last TLE update11 hours ago
Origin
Flag of CISTsSKB (CIS)
ManufacturerTsSKB
MissionDefense Imaging
Bus & MotorOBZOR, Unknown motor
Mass~900 kg wet, ~900 kg dry
Launch date (UTC)
1994-08-02 (30 years ago)
Launch vehicle
KOSMOS 11K65M
Launch site
Plesetsk Missile And Space Complex (PKMTR)
Object type
Payload
Rocket body
Debris
Shape & HBRCyl, 5 m
Radar Cross Section9.978 m², Large (>1 m²)

Expand to show TLE details & history

TLE from 11 hours ago
0 COSMOS 2285
1 23189U 94045A   24356.25616076  .00000075  00000-0  10652-3 0  9997
2 23189  74.0295 290.7338 0024375  45.3646  65.7000 13.72460722522217
Epoch: 2024-12-21T06:08Z
Definitive object data (Epoch: 2024-12-21T06:08:52.289Z)
Latitude63.68527°
Longitude-106.94133°
Altitude993.994 km
Speed7.364 km/s
True Right ascension05h 02m 20s
True Declination63° 33' 10"
Sunlit
Object was in full shadow at TLE epoch
Visualization TLE readout
Latitude57.20178°
Longitude-98.7381°
Altitude995.173 km
Speed7.362 km/s
Apparent Right ascension04h 33m 32s
Apparent Declination13° 41' 03"
Sunlit
Object is in full shadow
Visualization observer readout
Local Sidereal Time15:43:24
Azimuth345.057° N
Elevation-35.146°
Doppler factor1
Orbital elements
Apogee altitude1,006.401 km
Perigee altitude970.489 km
Semi-major axis7,366.582 km
Eccentricity0.0024375
Inclination74.0295°
RAAN290.7338°
Arg. of periapsis45.3646°
True anomaly65.95489°
Mean anomaly65.7°
Eccentric anomaly65.82741°
Mean motion3.43277 °/min
BSTAR0.00010652
Orbital period104.87 mins
Loading maneuver chart data...
Loading historical data...
Loading historical data...
Loading historical data...
Loading historical data...
Loading historical data...
Loading historical data...
Loading historical data...
Other satellites on launch #45 in the year 1994 (1994-08-02 UTC)

COSMOS 2285 Visibility forecast

Observer location: undefined°, undefined

Span
Click to sort rows by Start time (UTC) header in descending order
Start Az.
Max El. time (UTC)
Max El. Az.
Max El.
End time (UTC)
End Az.
7 mins2024-12-21 19:43:54.990Z132.888° SE2024-12-21 19:47:54.990Z89.054° E18.406°2024-12-21 19:50:54.990Z57.351° ENE
11 mins2024-12-21 21:28:54.990Z214.661° SW2024-12-21 21:33:54.990Z298.092° NW41.196°2024-12-21 21:39:54.990Z12.24° NNE
10 mins2024-12-22 06:40:54.990Z354.812° N2024-12-22 06:45:54.990Z80.44° E38.784°2024-12-22 06:50:54.990Z141.719° SSE
7 mins2024-12-22 08:28:54.990Z300.544° NW2024-12-22 08:31:54.990Z265.018° W21.349°2024-12-22 08:35:54.990Z220.619° SW
|